FW8889 Weather Reports


time (UTC)temp
F
wind
direction
speed
knots
gust
knots
rain 1hr
in
rain 24hr
in
rain mn
in
humidity
%
barometer
mb
20260831193050 79 109 0.0 2.6 0.00 0.00 0.00 44 1019.2
20260831191555 78 342 0.9 2.6 0.00 0.00 0.00 54 1019.6
20260831190100 77 101 0.9 3.5 0.00 0.00 0.00 56 1019.7
20260831184551 77 290 0.9 6.1 0.00 0.00 0.00 53 1019.9
20260831183057 76 201 0.9 4.3 0.00 0.00 0.00 58 1019.9
20260831181608 76 174 0.9 4.3 0.00 0.00 0.00 55 1020.0
20260831180111 77 330 0.0 1.7 0.00 0.00 0.00 48 1020.0
20260831174559 76 36 0.0 1.7 0.00 0.00 0.00 46 1020.0
20260831173102 75 5 0.9 2.6 0.00 0.00 0.00 50 1020.1
20260831171604 74 0 0.0 1.7 0.00 0.00 0.00 49 1020.3
20260831170108 74 297 0.0 2.6 0.00 0.00 0.00 50 1020.6
20260831164559 73 81 0.0 2.6 0.00 0.00 0.00 56 1020.8
20260831163103 73 320 0.0 1.7 0.00 0.00 0.00 53 1020.7
20260831161555 72 0 0.0 2.6 0.00 0.00 0.00 56 1021.0
20260831160051 72 0 0.0 0.9 0.00 0.00 0.00 54 1021.1
20260831154623 71 0 0.0 1.7 0.00 0.00 0.00 53 1021.2
20260831153050 70 0 0.0 2.6 0.00 0.00 0.00 55 1021.4
20260831151605 70 0 0.0 1.7 0.00 0.00 0.00 59 1021.4
20260831150053 69 0 0.0 1.7 0.00 0.00 0.00 59 1021.4
20260831144550 69 0 0.0 1.7 0.00 0.00 0.00 60 1021.6
20260831143055 68 0 0.0 1.7 0.00 0.00 0.00 60 1021.6
20260831141555 67 0 0.0 0.9 0.00 0.00 0.00 61 1021.5
20260831140056 67 0 0.0 0.9 0.00 0.00 0.00 63 1021.5
20260831134554 66 0 0.0 0.9 0.00 0.00 0.00 65 1021.6
20260831133050 65 0 0.0 0.9 0.00 0.00 0.00 70 1021.5
20260831131547 64 0 0.0 0.9 0.00 0.00 0.00 72 1021.4
20260831130107 63 0 0.0 0.9 0.00 0.00 0.00 74 1021.3
20260831124601 62 0 0.0 1.7 0.00 0.00 0.00 79 1021.3
20260831123052 61 0 0.0 1.7 0.00 0.00 0.00 85 1021.2
20260831121549 60 0 0.0 0.9 0.00 0.00 0.00 86 1021.0
20260831120057 59 0 0.0 1.7 0.00 0.00 0.00 84 1020.9
20260831114557 58 0 0.0 0.0 0.00 0.00 0.00 83 1020.8
20260831113054 58 0 0.0 0.0 0.00 0.00 0.00 83 1020.8
20260831111550 58 0 0.0 0.0 0.00 0.00 0.00 84 1020.8
20260831110059 58 0 0.0 0.0 0.00 0.00 0.00 84 1020.9
20260831104610 58 0 0.0 0.0 0.00 0.00 0.00 84 1020.7
20260831103053 58 0 0.0 0.0 0.00 0.00 0.00 85 1020.7
20260831101552 59 0 0.0 0.0 0.00 0.00 0.00 85 1020.5
20260831100122 59 0 0.0 0.0 0.00 0.00 0.00 85 1020.4
20260831094553 59 0 0.0 0.0 0.00 0.00 0.00 85 1020.2
20260831093051 60 0 0.0 0.0 0.00 0.00 0.00 85 1020.0
20260831091555 60 0 0.0 0.0 0.00 0.00 0.00 85 1019.8
20260831090056 60 0 0.0 0.0 0.00 0.00 0.00 85 1019.7
20260831084604 61 0 0.0 0.0 0.00 0.00 0.00 86 1019.5
20260831083052 61 0 0.0 0.0 0.00 0.00 0.00 85 1019.5
20260831081600 61 0 0.0 0.0 0.00 0.00 0.00 86 1019.2
20260831080105 62 0 0.0 0.0 0.00 0.00 0.00 86 1019.2
20260831074555 63 0 0.0 0.0 0.00 0.00 0.00 85 1019.1
20260831073054 63 0 0.0 0.0 0.00 0.00 0.00 85 1018.8
20260831071601 64 0 0.0 0.0 0.00 0.00 0.00 84 1018.8
20260831070113 64 0 0.0 0.0 0.00 0.00 0.00 84 1018.8
20260831064554 65 0 0.0 0.9 0.00 0.00 0.00 84 1018.7
20260831063053 66 0 0.0 0.0 0.00 0.00 0.00 83 1018.6
20260831061552 66 0 0.0 0.0 0.00 0.00 0.00 82 1018.4
20260831060058 67 0 0.0 0.9 0.00 0.00 0.00 81 1018.4
20260831054555 68 0 0.0 1.7 0.00 0.00 0.00 81 1018.3
20260831053053 68 0 0.0 0.9 0.00 0.00 0.00 80 1018.2
20260831051600 69 0 0.0 6.1 0.00 0.00 0.00 79 1018.2
20260831050058 69 0 0.0 0.9 0.00 0.00 0.00 79 1017.9
20260831044558 70 0 0.0 2.6 0.00 0.00 0.00 78 1018.0
20260831043053 70 0 0.0 1.7 0.00 0.00 0.00 77 1017.7
20260831041601 71 0 0.0 1.7 0.00 0.00 0.00 75 1017.6
20260831040055 72 0 0.0 3.5 0.00 0.00 0.00 74 1017.6
20260831034554 72 0 0.0 1.7 0.00 0.00 0.00 74 1017.5
20260831033107 72 119 0.0 3.5 0.00 0.00 0.00 73 1017.6
20260831031601 73 125 0.0 3.5 0.00 0.00 0.00 74 1017.7
20260831030103 73 0 0.9 7.0 0.00 0.00 0.00 74 1017.6
20260831024611 73 0 0.0 1.7 0.00 0.00 0.00 75 1017.6
20260831023053 73 0 0.0 1.7 0.00 0.00 0.00 75 1017.5
20260831021550 73 0 0.0 1.7 0.00 0.00 0.00 74 1017.5
20260831020106 73 0 0.0 1.7 0.00 0.00 0.00 74 1017.4
20260831014604 73 0 0.0 0.9 0.00 0.00 0.00 73 1017.4
20260831013052 73 0 0.0 0.9 0.00 0.00 0.00 70 1017.3
20260831011613 74 0 0.0 0.9 0.00 0.00 0.00 69 1017.1
20260831010056 74 0 0.0 1.7 0.00 0.00 0.00 68 1016.9
20260831004553 74 240 0.0 2.6 0.00 0.00 0.00 67 1016.6
20260831003055 74 0 0.0 1.7 0.00 0.00 0.00 66 1016.6
20260831001605 74 0 0.0 1.7 0.00 0.00 0.00 64 1016.4
20260831000055 74 0 0.0 0.9 0.00 0.00 0.00 63 1016.3
20260830234552 75 0 0.0 0.9 0.00 0.00 0.00 62 1016.1
20260830233059 75 0 0.0 2.6 0.00 0.00 0.00 61 1016.1
20260830231601 76 0 0.0 0.9 0.00 0.00 0.00 60 1016.1
20260830230053 76 0 0.0 1.7 0.00 0.00 0.00 59 1016.1
20260830224621 76 338 0.0 1.7 0.00 0.00 0.00 57 1016.5
20260830223057 77 338 0.0 1.7 0.00 0.00 0.00 58 1016.5
20260830221602 77 259 0.0 3.5 0.00 0.00 0.00 58 1016.6
20260830220058 77 0 0.0 1.7 0.00 0.00 0.00 57 1016.5
20260830214604 78 0 0.0 1.7 0.00 0.00 0.00 58 1016.5
20260830213054 78 0 0.0 2.6 0.00 0.00 0.00 59 1016.6
20260830211554 78 150 0.0 2.6 0.00 0.00 0.00 58 1016.7
20260830210055 78 23 0.9 3.5 0.00 0.00 0.00 56 1016.8
20260830204556 79 348 0.9 5.2 0.00 0.00 0.00 54 1016.8
20260830203053 79 50 0.0 2.6 0.00 0.00 0.00 54 1017.0
20260830201552 79 0 0.9 4.3 0.00 0.00 0.00 51 1017.1
20260830200052 79 0 0.9 3.5 0.00 0.00 0.00 52 1017.0
20260830194551 80 95 0.0 0.9 0.00 0.00 0.00 55 1017.2